This demonstration page uses our WeatherBlox Daily Observations layout. Learn more.

Left ArrowRight Arrow

36.17497, -115.13722

Hourly Observations for April 27, 2017

Temp ( °F °C ) Dew Point ( °F °C ) Humidity (%) Winds ( mph kmh ) Pressure ( in mb ) Visibility ( mi km ) Precip ( " mm )
12:53 am 00:53 Clear 76 24.4 27 -2.8 16 16 NW 22 35 29.64 1004 10 16.0934 N/A
1:53 am 01:53 Clear 74 23.3 25 -3.9 16 16 NW 18 30 29.65 1004 10 16.0934 N/A
2:53 am 02:53 Clear 72 22.2 26 -3.3 18 18 NW 15 24 29.65 1004 10 16.0934 N/A
3:53 am 03:53 Clear 71 21.7 26 -3.3 19 19 NW 10 17 29.68 1005 10 16.0934 N/A
4:53 am 04:53 Clear 70 21.1 26 -3.3 19 19 NNW 7 11 29.7 1006 10 16.0934 N/A
5:53 am 05:53 Sunny 69 20.6 24 -4.4 18 18 NNW 8 13 29.71 1006 10 16.0934 N/A
6:53 am 06:53 Sunny 70 21.1 24 -4.4 18 18 NNW 13 20 29.74 1007 10 16.0934 N/A
7:53 am 07:53 Sunny 72 22.2 25 -3.9 17 17 N 14 22 29.75 1008 10 16.0934 N/A
8:53 am 08:53 Sunny 73 22.8 25 -3.9 17 17 N 15 24 29.75 1007 10 16.0934 N/A
9:53 am 09:53 Sunny 75 23.9 26 -3.3 16 16 N 13 20 29.74 1007 10 16.0934 N/A
10:53 am 10:53 Sunny 77 25 25 -3.9 14 14 NNW 23 37 29.73 1007 10 16.0934 N/A
11:53 am 11:53 Sunny 79 26.1 23 -5 12 12 N 18 30 29.72 1006 10 16.0934 N/A
12:53 pm 12:53 Sunny 80 26.7 24 -4.4 13 13 N 21 33 29.69 1005 10 16.0934 N/A
1:53 pm 13:53 Sunny 83 28.3 22 -5.6 10 10 NNW 25 41 29.64 1004 10 16.0934 N/A
2:53 pm 14:53 Sunny 83 28.3 19 -7.2 9 9 N 25 41 29.62 1003 10 16.0934 N/A
3:53 pm 15:53 Sunny 82 27.8 19 -7.2 9 9 N 25 41 29.61 1003 10 16.0934 N/A
4:53 pm 16:53 Sunny 83 28.3 18 -7.8 9 9 NNW 21 33 29.59 1002 10 16.0934 N/A
5:53 pm 17:53 Sunny 82 27.8 17 -8.3 9 9 N 23 37 29.6 1002 10 16.0934 N/A
6:53 pm 18:53 Sunny 79 26.1 17 -8.3 10 10 N 16 26 29.6 1002 10 16.0934 N/A
7:53 pm 19:53 Clear 76 24.4 14 -10 9 9 NNW 16 26 29.62 1003 10 16.0934 N/A
8:53 pm 20:53 Clear 73 22.8 11 -11.7 9 9 N 17 28 29.66 1004 10 16.0934 N/A
9:53 pm 21:53 Clear 72 22.2 3 -16.1 6 6 NNW 23 37 29.67 1005 10 16.0934 N/A
10:53 pm 22:53 Clear 71 21.7 2 -16.7 6 6 NNW 17 28 29.68 1005 10 16.0934 N/A
11:53 pm 23:53 Clear 70 21.1 1 -17.2 6 6 N 15 24 29.7 1006 10 16.0934 N/A

Powered by AerisWeather